Location: Crescent
(42.8242°N, 73.7329°W)
Time: 00:17:48
(UTC+00:00)

Vanguard 2 Rocket - Pass Details

Date: 22 February 2026
Orbit: 553 x 3286 km, 32.9° (Epoch: 9 March)

Event Time Altitude Azimuth Distance (km) Brightness Sun altitude
Rises 17:40:42 0° 253° (WSW) 7,238 11.8 36.7°
Reaches altitude 10° 17:45:41 10° 250° (WSW) 6,229 11.6 36.5°
Maximum altitude 18:04:41 59° 178° (S) 3,082 11.0 35.6°
Drops below altitude 10° 18:17:41 10° 104° (ESE) 4,440 10.4 34.9°
Sets 18:20:36 0° 100° (E) 5,128 10.6 34.7°
